Torna al catalogo

STARLINK-36147

AttivoComunicazioniVLEO
NORAD 66987·PAYLOAD·🇺🇸 United States

Lanciato Dec 8, 2025 da Cape Canaveral Space Force Station

Loading…

Prossimi Passaggi (prossime 24 ore)

TLE

AggiornatoSource: CelesTrak SupGP

Epoca: Sep 15, 2026, 03:16 UTC

1 66987C 25288AE  26258.13659722 -.00011635  00000+0 -42141-3 0  2589
2 66987  43.0034  33.4910 0001498 265.3350  18.6707 15.27585879    15

Traccia STARLINK-36147 in tempo reale con AllMySat

Download on the App Store